Location: ?????
(31.8092°N, 35.2590°E)
Time: 11:47:26
(UTC+00:00)

Cosmos 1455 Rocket - Pass Details

Date: 22 October 2021
Orbit: 604 x 630 km, 82.5° (Epoch: 26 November)

Event Time Altitude Azimuth Distance (km) Brightness Sun altitude
Rises 16:29:45 0° 223° (SW) 2,881 7.2 -20.0°
Reaches altitude 10° 16:32:41 10° 244° (WSW) 1,986 6.6 -20.6°
Maximum altitude 16:35:31 17° 284° (WNW) 1,599 6.1 -21.2°
Drops below altitude 10° 16:38:22 10° 324° (NW) 2,002 6.1 -21.8°
Sets 16:41:21 0° 346° (NNW) 2,917 6.7 -22.4°
